Date_Time,Julian_Date,Latitude,Longitude,Instrument_Depth,U,V,Speed,Direction
(yyyy-mm-dd hh:mn:ss UTC),(JD),(+ deg. North),(+ deg. East),(m),(cm/s),(cm/s),(cm/s),(deg True)
1983-07-27 16:00:00 UTC,2445543.166667,29.5531,-94.1969,0036,15.88,1.95,16.0000,83.0000
1983-07-27 16:30:00 UTC,2445543.187500,29.5531,-94.1969,0036,16.74,2.95,17.0000,80.0000
1983-07-27 17:00:00 UTC,2445543.208333,29.5531,-94.1969,0036,16.50,4.11,17.0000,76.0000
1983-07-27 17:30:00 UTC,2445543.229167,29.5531,-94.1969,0036,15.45,4.14,16.0000,75.0000
1983-07-27 18:00:00 UTC,2445543.250000,29.5531,-94.1969,0036,15.38,4.41,16.0000,74.0000
1983-07-27 18:30:00 UTC,2445543.270833,29.5531,-94.1969,0036,14.27,4.64,15.0000,72.0000
1983-07-27 19:00:00 UTC,2445543.291667,29.5531,-94.1969,0036,14.10,5.13,15.0000,70.0000
1983-07-27 19:30:00 UTC,2445543.312500,29.5531,-94.1969,0036,13.07,5.02,14.0000,69.0000
1983-07-27 20:00:00 UTC,2445543.333333,29.5531,-94.1969,0036,13.07,5.02,14.0000,69.0000
1983-07-27 20:30:00 UTC,2445543.354167,29.5531,-94.1969,0036,12.50,3.58,13.0000,74.0000
1983-07-27 21:00:00 UTC,2445543.375000,29.5531,-94.1969,0036,11.69,2.70,12.0000,77.0000
1983-07-27 21:30:00 UTC,2445543.395833,29.5531,-94.1969,0036,10.57,3.03,11.0000,74.0000
1983-07-27 22:00:00 UTC,2445543.416667,29.5531,-94.1969,0036,11.20,4.30,12.0000,69.0000
1983-07-27 22:30:00 UTC,2445543.437500,29.5531,-94.1969,0036,11.68,5.70,13.0000,64.0000
1983-07-27 23:00:00 UTC,2445543.458333,29.5531,-94.1969,0036,12.36,6.57,14.0000,62.0000
1983-07-27 23:30:00 UTC,2445543.479167,29.5531,-94.1969,0036,12.58,6.14,14.0000,64.0000
1983-07-28 00:00:00 UTC,2445543.500000,29.5531,-94.1969,0036,12.98,5.24,14.0000,68.0000
1983-07-28 00:30:00 UTC,2445543.520833,29.5531,-94.1969,0036,14.18,4.88,15.0000,71.0000
1983-07-28 01:00:00 UTC,2445543.541667,29.5531,-94.1969,0036,15.04,5.47,16.0000,70.0000
1983-07-28 01:30:00 UTC,2445543.562500,29.5531,-94.1969,0036,15.97,5.81,17.0000,70.0000
1983-07-28 02:00:00 UTC,2445543.583333,29.5531,-94.1969,0036,17.12,5.56,18.0000,72.0000
1983-07-28 02:30:00 UTC,2445543.604167,29.5531,-94.1969,0036,18.26,5.24,19.0000,74.0000
1983-07-28 03:00:00 UTC,2445543.625000,29.5531,-94.1969,0036,19.32,5.18,20.0000,75.0000
1983-07-28 03:30:00 UTC,2445543.645833,29.5531,-94.1969,0036,21.52,4.57,22.0000,78.0000
1983-07-28 04:00:00 UTC,2445543.666667,29.5531,-94.1969,0036,22.65,3.99,23.0000,80.0000
1983-07-28 04:30:00 UTC,2445543.687500,29.5531,-94.1969,0036,24.62,4.34,25.0000,80.0000
1983-07-28 05:00:00 UTC,2445543.708333,29.5531,-94.1969,0036,26.41,5.61,27.0000,78.0000
1983-07-28 05:30:00 UTC,2445543.729167,29.5531,-94.1969,0036,28.26,6.52,29.0000,77.0000
1983-07-28 06:00:00 UTC,2445543.750000,29.5531,-94.1969,0036,30.08,7.50,31.0000,76.0000
1983-07-28 06:30:00 UTC,2445543.770833,29.5531,-94.1969,0036,29.11,7.26,30.0000,76.0000
1983-07-28 07:00:00 UTC,2445543.791667,29.5531,-94.1969,0036,27.17,6.77,28.0000,76.0000
1983-07-28 07:30:00 UTC,2445543.812500,29.5531,-94.1969,0036,25.23,6.29,26.0000,76.0000
1983-07-28 08:00:00 UTC,2445543.833333,29.5531,-94.1969,0036,23.29,5.81,24.0000,76.0000
1983-07-28 08:30:00 UTC,2445543.854167,29.5531,-94.1969,0036,21.35,5.32,22.0000,76.0000
1983-07-28 09:00:00 UTC,2445543.875000,29.5531,-94.1969,0036,19.56,4.16,20.0000,78.0000
1983-07-28 09:30:00 UTC,2445543.895833,29.5531,-94.1969,0036,18.65,3.63,19.0000,79.0000
1983-07-28 10:00:00 UTC,2445543.916667,29.5531,-94.1969,0036,17.61,3.74,18.0000,78.0000
1983-07-28 10:30:00 UTC,2445543.937500,29.5531,-94.1969,0036,16.56,3.82,17.0000,77.0000
1983-07-28 11:00:00 UTC,2445543.958333,29.5531,-94.1969,0036,16.42,4.40,17.0000,75.0000
1983-07-28 11:30:00 UTC,2445543.979167,29.5531,-94.1969,0036,16.50,4.11,17.0000,76.0000
1983-07-28 12:00:00 UTC,2445544.000000,29.5531,-94.1969,0036,14.77,2.60,15.0000,80.0000
1983-07-28 12:30:00 UTC,2445544.020833,29.5531,-94.1969,0036,13.86,1.95,14.0000,82.0000
1983-07-28 13:00:00 UTC,2445544.041667,29.5531,-94.1969,0036,13.97,0.98,14.0000,86.0000
1983-07-28 13:30:00 UTC,2445544.062500,29.5531,-94.1969,0036,13.00,0.23,13.0000,89.0000
1983-07-28 14:00:00 UTC,2445544.083333,29.5531,-94.1969,0036,11.99,-0.42,12.0000,92.0000
1983-07-28 14:30:00 UTC,2445544.104167,29.5531,-94.1969,0036,10.94,-1.15,11.0000,96.0000
1983-07-28 15:00:00 UTC,2445544.125000,29.5531,-94.1969,0036,9.74,-2.25,10.0000,103.0000
1983-07-28 15:30:00 UTC,2445544.145833,29.5531,-94.1969,0036,7.61,-2.47,8.0000,108.0000
1983-07-28 16:00:00 UTC,2445544.166667,29.5531,-94.1969,0036,7.76,-1.94,8.0000,104.0000
1983-07-28 16:30:00 UTC,2445544.187500,29.5531,-94.1969,0036,8.00,-0.14,8.0000,91.0000
1983-07-28 17:00:00 UTC,2445544.208333,29.5531,-94.1969,0036,6.89,1.22,7.0000,80.0000
1983-07-28 17:30:00 UTC,2445544.229167,29.5531,-94.1969,0036,6.79,1.69,7.0000,76.0000
1983-07-28 18:00:00 UTC,2445544.250000,29.5531,-94.1969,0036,5.87,1.25,6.0000,78.0000
1983-07-28 18:30:00 UTC,2445544.270833,29.5531,-94.1969,0036,6.85,1.46,7.0000,78.0000
1983-07-28 19:00:00 UTC,2445544.291667,29.5531,-94.1969,0036,6.91,1.10,7.0000,81.0000
1983-07-28 19:30:00 UTC,2445544.312500,29.5531,-94.1969,0036,7.85,1.53,8.0000,79.0000
1983-07-28 20:00:00 UTC,2445544.333333,29.5531,-94.1969,0036,8.46,3.08,9.0000,70.0000
1983-07-28 20:30:00 UTC,2445544.354167,29.5531,-94.1969,0036,8.02,4.09,9.0000,63.0000
1983-07-28 21:00:00 UTC,2445544.375000,29.5531,-94.1969,0036,8.75,4.85,10.0000,61.0000
1983-07-28 21:30:00 UTC,2445544.395833,29.5531,-94.1969,0036,10.50,5.82,12.0000,61.0000
1983-07-28 22:00:00 UTC,2445544.416667,29.5531,-94.1969,0036,11.68,5.70,13.0000,64.0000
1983-07-28 22:30:00 UTC,2445544.437500,29.5531,-94.1969,0036,14.00,5.38,15.0000,69.0000
1983-07-28 23:00:00 UTC,2445544.458333,29.5531,-94.1969,0036,15.38,4.41,16.0000,74.0000
1983-07-28 23:30:00 UTC,2445544.479167,29.5531,-94.1969,0036,16.74,2.95,17.0000,80.0000
1983-07-29 00:00:00 UTC,2445544.500000,29.5531,-94.1969,0036,17.90,1.88,18.0000,84.0000
1983-07-29 00:30:00 UTC,2445544.520833,29.5531,-94.1969,0036,17.87,2.19,18.0000,83.0000
1983-07-29 01:00:00 UTC,2445544.541667,29.5531,-94.1969,0036,18.82,2.64,19.0000,82.0000
1983-07-29 01:30:00 UTC,2445544.562500,29.5531,-94.1969,0036,18.90,1.99,19.0000,84.0000
1983-07-29 02:00:00 UTC,2445544.583333,29.5531,-94.1969,0036,18.99,0.66,19.0000,88.0000
1983-07-29 02:30:00 UTC,2445544.604167,29.5531,-94.1969,0036,18.99,-0.66,19.0000,92.0000
1983-07-29 03:00:00 UTC,2445544.625000,29.5531,-94.1969,0036,18.93,-1.66,19.0000,95.0000
1983-07-29 03:30:00 UTC,2445544.645833,29.5531,-94.1969,0036,18.86,-2.32,19.0000,97.0000
1983-07-29 04:00:00 UTC,2445544.666667,29.5531,-94.1969,0036,19.85,-2.44,20.0000,97.0000
1983-07-29 04:30:00 UTC,2445544.687500,29.5531,-94.1969,0036,20.97,-1.10,21.0000,93.0000
1983-07-29 05:00:00 UTC,2445544.708333,29.5531,-94.1969,0036,20.99,-0.73,21.0000,92.0000
1983-07-29 05:30:00 UTC,2445544.729167,29.5531,-94.1969,0036,20.84,-2.56,21.0000,97.0000
1983-07-29 06:00:00 UTC,2445544.750000,29.5531,-94.1969,0036,21.84,-2.68,22.0000,97.0000
1983-07-29 06:30:00 UTC,2445544.770833,29.5531,-94.1969,0036,23.97,-1.26,24.0000,93.0000
1983-07-29 07:00:00 UTC,2445544.791667,29.5531,-94.1969,0036,23.00,-0.40,23.0000,91.0000
1983-07-29 07:30:00 UTC,2445544.812500,29.5531,-94.1969,0036,21.99,-0.77,22.0000,92.0000
1983-07-29 08:00:00 UTC,2445544.833333,29.5531,-94.1969,0036,19.81,-2.78,20.0000,98.0000
1983-07-29 08:30:00 UTC,2445544.854167,29.5531,-94.1969,0036,17.47,-4.35,18.0000,104.0000
1983-07-29 09:00:00 UTC,2445544.875000,29.5531,-94.1969,0036,16.17,-5.25,17.0000,108.0000
1983-07-29 09:30:00 UTC,2445544.895833,29.5531,-94.1969,0036,13.81,-5.86,15.0000,113.0000
1983-07-29 10:00:00 UTC,2445544.916667,29.5531,-94.1969,0036,12.69,-5.92,14.0000,115.0000
1983-07-29 10:30:00 UTC,2445544.937500,29.5531,-94.1969,0036,10.50,-5.82,12.0000,119.0000
1983-07-29 11:00:00 UTC,2445544.958333,29.5531,-94.1969,0036,8.29,-5.59,10.0000,124.0000
1983-07-29 11:30:00 UTC,2445544.979167,29.5531,-94.1969,0036,6.79,-5.90,9.0000,131.0000
1983-07-29 12:00:00 UTC,2445545.000000,29.5531,-94.1969,0036,5.25,-6.04,8.0000,139.0000
1983-07-29 12:30:00 UTC,2445545.020833,29.5531,-94.1969,0036,4.12,-6.86,8.0000,149.0000
1983-07-29 13:00:00 UTC,2445545.041667,29.5531,-94.1969,0036,2.78,-8.56,9.0000,162.0000
1983-07-29 13:30:00 UTC,2445545.062500,29.5531,-94.1969,0036,1.41,-8.89,9.0000,171.0000
1983-07-29 14:00:00 UTC,2445545.083333,29.5531,-94.1969,0036,-0.14,-8.00,8.0000,181.0000
1983-07-29 14:30:00 UTC,2445545.104167,29.5531,-94.1969,0036,-2.34,-7.65,8.0000,197.0000
1983-07-29 15:00:00 UTC,2445545.125000,29.5531,-94.1969,0036,-4.90,-7.55,9.0000,213.0000
1983-07-29 15:30:00 UTC,2445545.145833,29.5531,-94.1969,0036,-6.58,-6.14,9.0000,227.0000
1983-07-29 16:00:00 UTC,2445545.166667,29.5531,-94.1969,0036,-7.55,-4.90,9.0000,237.0000
1983-07-29 16:30:00 UTC,2445545.187500,29.5531,-94.1969,0036,-9.06,-4.23,10.0000,245.0000
1983-07-29 17:00:00 UTC,2445545.208333,29.5531,-94.1969,0036,-9.34,-3.58,10.0000,249.0000
1983-07-29 17:30:00 UTC,2445545.229167,29.5531,-94.1969,0036,-9.56,-2.92,10.0000,253.0000
1983-07-29 18:00:00 UTC,2445545.250000,29.5531,-94.1969,0036,-9.78,-2.08,10.0000,258.0000
1983-07-29 18:30:00 UTC,2445545.270833,29.5531,-94.1969,0036,-10.83,-1.91,11.0000,260.0000
1983-07-29 19:00:00 UTC,2445545.291667,29.5531,-94.1969,0036,-11.85,-1.88,12.0000,261.0000
1983-07-29 19:30:00 UTC,2445545.312500,29.5531,-94.1969,0036,-13.74,-2.67,14.0000,259.0000
1983-07-29 20:00:00 UTC,2445545.333333,29.5531,-94.1969,0036,-14.55,-3.63,15.0000,256.0000
1983-07-29 20:30:00 UTC,2445545.354167,29.5531,-94.1969,0036,-16.50,-4.11,17.0000,256.0000
1983-07-29 21:00:00 UTC,2445545.375000,29.5531,-94.1969,0036,-17.61,-3.74,18.0000,258.0000
1983-07-29 21:30:00 UTC,2445545.395833,29.5531,-94.1969,0036,-19.56,-4.16,20.0000,258.0000
1983-07-29 22:00:00 UTC,2445545.416667,29.5531,-94.1969,0036,-21.52,-4.57,22.0000,258.0000
1983-07-29 22:30:00 UTC,2445545.437500,29.5531,-94.1969,0036,-23.64,-4.17,24.0000,260.0000
1983-07-29 23:00:00 UTC,2445545.458333,29.5531,-94.1969,0036,-25.52,-4.96,26.0000,259.0000
1983-07-29 23:30:00 UTC,2445545.479167,29.5531,-94.1969,0036,-27.28,-6.30,28.0000,257.0000
1983-07-30 00:00:00 UTC,2445545.500000,29.5531,-94.1969,0036,-30.76,-8.82,32.0000,254.0000
1983-07-30 00:30:00 UTC,2445545.520833,29.5531,-94.1969,0036,-33.47,-10.23,35.0000,253.0000
1983-07-30 01:00:00 UTC,2445545.541667,29.5531,-94.1969,0036,-34.43,-10.53,36.0000,253.0000
1983-07-30 01:30:00 UTC,2445545.562500,29.5531,-94.1969,0036,-35.38,-10.82,37.0000,253.0000
1983-07-30 02:00:00 UTC,2445545.583333,29.5531,-94.1969,0036,-35.93,-12.37,38.0000,251.0000
1983-07-30 02:30:00 UTC,2445545.604167,29.5531,-94.1969,0036,-36.65,-13.34,39.0000,250.0000
1983-07-30 03:00:00 UTC,2445545.625000,29.5531,-94.1969,0036,-35.23,-14.24,38.0000,248.0000
1983-07-30 03:30:00 UTC,2445545.645833,29.5531,-94.1969,0036,-34.71,-15.46,38.0000,246.0000
1983-07-30 04:00:00 UTC,2445545.666667,29.5531,-94.1969,0036,-34.44,-16.06,38.0000,245.0000
1983-07-30 04:30:00 UTC,2445545.687500,29.5531,-94.1969,0036,-32.91,-19.00,38.0000,240.0000
1983-07-30 05:00:00 UTC,2445545.708333,29.5531,-94.1969,0036,-31.13,-21.80,38.0000,235.0000
1983-07-30 05:30:00 UTC,2445545.729167,29.5531,-94.1969,0036,-30.35,-22.87,38.0000,233.0000
1983-07-30 06:00:00 UTC,2445545.750000,29.5531,-94.1969,0036,-30.74,-22.34,38.0000,234.0000
1983-07-30 06:30:00 UTC,2445545.770833,29.5531,-94.1969,0036,-31.13,-21.80,38.0000,235.0000
1983-07-30 07:00:00 UTC,2445545.791667,29.5531,-94.1969,0036,-32.91,-19.00,38.0000,240.0000
1983-07-30 07:30:00 UTC,2445545.812500,29.5531,-94.1969,0036,-34.98,-14.85,38.0000,247.0000
1983-07-30 08:00:00 UTC,2445545.833333,29.5531,-94.1969,0036,-36.14,-11.74,38.0000,252.0000
1983-07-30 08:30:00 UTC,2445545.854167,29.5531,-94.1969,0036,-35.93,-12.37,38.0000,251.0000
1983-07-30 09:00:00 UTC,2445545.875000,29.5531,-94.1969,0036,-34.98,-12.05,37.0000,251.0000
1983-07-30 09:30:00 UTC,2445545.895833,29.5531,-94.1969,0036,-35.38,-10.82,37.0000,253.0000
1983-07-30 10:00:00 UTC,2445545.916667,29.5531,-94.1969,0036,-37.67,-10.09,39.0000,255.0000
1983-07-30 10:30:00 UTC,2445545.937500,29.5531,-94.1969,0036,-38.97,-9.00,40.0000,257.0000
1983-07-30 11:00:00 UTC,2445545.958333,29.5531,-94.1969,0036,-38.97,-9.00,40.0000,257.0000
1983-07-30 11:30:00 UTC,2445545.979167,29.5531,-94.1969,0036,-38.81,-9.68,40.0000,256.0000
1983-07-30 12:00:00 UTC,2445546.000000,29.5531,-94.1969,0036,-39.21,-11.99,41.0000,253.0000
1983-07-30 12:30:00 UTC,2445546.020833,29.5531,-94.1969,0036,-38.25,-11.69,40.0000,253.0000
1983-07-30 13:00:00 UTC,2445546.041667,29.5531,-94.1969,0036,-37.30,-11.40,39.0000,253.0000
1983-07-30 13:30:00 UTC,2445546.062500,29.5531,-94.1969,0036,-36.34,-11.11,38.0000,253.0000
1983-07-30 14:00:00 UTC,2445546.083333,29.5531,-94.1969,0036,-36.34,-11.11,38.0000,253.0000
1983-07-30 14:30:00 UTC,2445546.104167,29.5531,-94.1969,0036,-35.19,-11.43,37.0000,252.0000
1983-07-30 15:00:00 UTC,2445546.125000,29.5531,-94.1969,0036,-33.61,-12.90,36.0000,249.0000
1983-07-30 15:30:00 UTC,2445546.145833,29.5531,-94.1969,0036,-32.45,-13.11,35.0000,248.0000
1983-07-30 16:00:00 UTC,2445546.166667,29.5531,-94.1969,0036,-30.60,-12.36,33.0000,248.0000
1983-07-30 16:30:00 UTC,2445546.187500,29.5531,-94.1969,0036,-29.31,-10.09,31.0000,251.0000
1983-07-30 17:00:00 UTC,2445546.208333,29.5531,-94.1969,0036,-31.88,-8.54,33.0000,255.0000
1983-07-30 17:30:00 UTC,2445546.229167,29.5531,-94.1969,0036,-36.32,-7.06,37.0000,259.0000
1983-07-30 18:00:00 UTC,2445546.250000,29.5531,-94.1969,0036,-37.53,-5.94,38.0000,261.0000
1983-07-30 18:30:00 UTC,2445546.270833,29.5531,-94.1969,0036,-36.72,-4.51,37.0000,263.0000
1983-07-30 19:00:00 UTC,2445546.291667,29.5531,-94.1969,0036,-36.86,-3.22,37.0000,265.0000
1983-07-30 19:30:00 UTC,2445546.312500,29.5531,-94.1969,0036,-36.86,-3.22,37.0000,265.0000
1983-07-30 20:00:00 UTC,2445546.333333,29.5531,-94.1969,0036,-35.80,-3.76,36.0000,264.0000
1983-07-30 20:30:00 UTC,2445546.354167,29.5531,-94.1969,0036,-36.80,-3.87,37.0000,264.0000
1983-07-30 21:00:00 UTC,2445546.375000,29.5531,-94.1969,0036,-34.74,-4.27,35.0000,263.0000
1983-07-30 21:30:00 UTC,2445546.395833,29.5531,-94.1969,0036,-31.61,-5.01,32.0000,261.0000
1983-07-30 22:00:00 UTC,2445546.416667,29.5531,-94.1969,0036,-27.57,-4.86,28.0000,260.0000
1983-07-30 22:30:00 UTC,2445546.437500,29.5531,-94.1969,0036,-25.60,-4.51,26.0000,260.0000
1983-07-30 23:00:00 UTC,2445546.458333,29.5531,-94.1969,0036,-23.56,-4.58,24.0000,259.0000
1983-07-30 23:30:00 UTC,2445546.479167,29.5531,-94.1969,0036,-23.18,-6.21,24.0000,255.0000
1983-07-31 00:00:00 UTC,2445546.500000,29.5531,-94.1969,0036,-23.78,-7.73,25.0000,252.0000
1983-07-31 00:30:00 UTC,2445546.520833,29.5531,-94.1969,0036,-25.53,-8.79,27.0000,251.0000
1983-07-31 01:00:00 UTC,2445546.541667,29.5531,-94.1969,0036,-25.37,-9.23,27.0000,250.0000
1983-07-31 01:30:00 UTC,2445546.562500,29.5531,-94.1969,0036,-26.14,-10.03,28.0000,249.0000
1983-07-31 02:00:00 UTC,2445546.583333,29.5531,-94.1969,0036,-27.82,-11.24,30.0000,248.0000
1983-07-31 02:30:00 UTC,2445546.604167,29.5531,-94.1969,0036,-28.32,-12.61,31.0000,246.0000
1983-07-31 03:00:00 UTC,2445546.625000,29.5531,-94.1969,0036,-27.37,-14.55,31.0000,242.0000
1983-07-31 03:30:00 UTC,2445546.645833,29.5531,-94.1969,0036,-28.25,-15.02,32.0000,242.0000
1983-07-31 04:00:00 UTC,2445546.666667,29.5531,-94.1969,0036,-27.11,-15.03,31.0000,241.0000
1983-07-31 04:30:00 UTC,2445546.687500,29.5531,-94.1969,0036,-25.71,-15.45,30.0000,239.0000
1983-07-31 05:00:00 UTC,2445546.708333,29.5531,-94.1969,0036,-26.29,-16.43,31.0000,238.0000
1983-07-31 05:30:00 UTC,2445546.729167,29.5531,-94.1969,0036,-26.85,-15.50,31.0000,240.0000
1983-07-31 06:00:00 UTC,2445546.750000,29.5531,-94.1969,0036,-26.96,-13.15,30.0000,244.0000
1983-07-31 06:30:00 UTC,2445546.770833,29.5531,-94.1969,0036,-27.82,-11.24,30.0000,248.0000
1983-07-31 07:00:00 UTC,2445546.791667,29.5531,-94.1969,0036,-29.13,-10.60,31.0000,250.0000
1983-07-31 07:30:00 UTC,2445546.812500,29.5531,-94.1969,0036,-29.87,-11.47,32.0000,249.0000
1983-07-31 08:00:00 UTC,2445546.833333,29.5531,-94.1969,0036,-30.81,-11.83,33.0000,249.0000
1983-07-31 08:30:00 UTC,2445546.854167,29.5531,-94.1969,0036,-30.07,-10.94,32.0000,250.0000
1983-07-31 09:00:00 UTC,2445546.875000,29.5531,-94.1969,0036,-30.43,-9.89,32.0000,252.0000
1983-07-31 09:30:00 UTC,2445546.895833,29.5531,-94.1969,0036,-30.91,-8.28,32.0000,255.0000
1983-07-31 10:00:00 UTC,2445546.916667,29.5531,-94.1969,0036,-30.32,-6.45,31.0000,258.0000
1983-07-31 10:30:00 UTC,2445546.937500,29.5531,-94.1969,0036,-29.34,-6.24,30.0000,258.0000
1983-07-31 11:00:00 UTC,2445546.958333,29.5531,-94.1969,0036,-28.01,-7.51,29.0000,255.0000
1983-07-31 11:30:00 UTC,2445546.979167,29.5531,-94.1969,0036,-26.47,-9.12,28.0000,251.0000
1983-07-31 12:00:00 UTC,2445547.000000,29.5531,-94.1969,0036,-24.27,-9.32,26.0000,249.0000
1983-07-31 12:30:00 UTC,2445547.020833,29.5531,-94.1969,0036,-23.34,-8.96,25.0000,249.0000
1983-07-31 13:00:00 UTC,2445547.041667,29.5531,-94.1969,0036,-22.69,-7.81,24.0000,251.0000
1983-07-31 13:30:00 UTC,2445547.062500,29.5531,-94.1969,0036,-22.22,-5.95,23.0000,255.0000
1983-07-31 14:00:00 UTC,2445547.083333,29.5531,-94.1969,0036,-22.58,-4.39,23.0000,259.0000
1983-07-31 14:30:00 UTC,2445547.104167,29.5531,-94.1969,0036,-22.72,-3.60,23.0000,261.0000
1983-07-31 15:00:00 UTC,2445547.125000,29.5531,-94.1969,0036,-22.78,-3.20,23.0000,262.0000
1983-07-31 15:30:00 UTC,2445547.145833,29.5531,-94.1969,0036,-22.72,-3.60,23.0000,261.0000
1983-07-31 16:00:00 UTC,2445547.166667,29.5531,-94.1969,0036,-20.54,-4.37,21.0000,258.0000
1983-07-31 16:30:00 UTC,2445547.187500,29.5531,-94.1969,0036,-18.35,-4.92,19.0000,255.0000
1983-07-31 17:00:00 UTC,2445547.208333,29.5531,-94.1969,0036,-18.26,-5.24,19.0000,254.0000
1983-07-31 17:30:00 UTC,2445547.229167,29.5531,-94.1969,0036,-19.23,-5.51,20.0000,254.0000
1983-07-31 18:00:00 UTC,2445547.250000,29.5531,-94.1969,0036,-18.51,-4.27,19.0000,257.0000
1983-07-31 18:30:00 UTC,2445547.270833,29.5531,-94.1969,0036,-15.59,-3.60,16.0000,257.0000
1983-07-31 19:00:00 UTC,2445547.291667,29.5531,-94.1969,0036,-13.16,-4.79,14.0000,250.0000
1983-07-31 19:30:00 UTC,2445547.312500,29.5531,-94.1969,0036,-13.91,-5.62,15.0000,248.0000
1983-07-31 20:00:00 UTC,2445547.333333,29.5531,-94.1969,0036,-13.58,-3.39,14.0000,256.0000
1983-07-31 20:30:00 UTC,2445547.354167,29.5531,-94.1969,0036,-12.90,-1.58,13.0000,263.0000
1983-07-31 21:00:00 UTC,2445547.375000,29.5531,-94.1969,0036,-10.94,-1.15,11.0000,264.0000
1983-07-31 21:30:00 UTC,2445547.395833,29.5531,-94.1969,0036,-10.86,-1.72,11.0000,261.0000
1983-07-31 22:00:00 UTC,2445547.416667,29.5531,-94.1969,0036,-10.86,-1.72,11.0000,261.0000
1983-07-31 22:30:00 UTC,2445547.437500,29.5531,-94.1969,0036,-10.00,-0.17,10.0000,269.0000
1983-07-31 23:00:00 UTC,2445547.458333,29.5531,-94.1969,0036,-9.82,1.91,10.0000,281.0000
1983-07-31 23:30:00 UTC,2445547.479167,29.5531,-94.1969,0036,-8.40,3.23,9.0000,291.0000
1983-08-01 00:00:00 UTC,2445547.500000,29.5531,-94.1969,0036,-8.02,4.09,9.0000,297.0000
1983-08-01 00:30:00 UTC,2445547.520833,29.5531,-94.1969,0036,-8.09,3.95,9.0000,296.0000
1983-08-01 01:00:00 UTC,2445547.541667,29.5531,-94.1969,0036,-8.56,2.78,9.0000,288.0000
1983-08-01 01:30:00 UTC,2445547.562500,29.5531,-94.1969,0036,-8.93,1.10,9.0000,277.0000
1983-08-01 02:00:00 UTC,2445547.583333,29.5531,-94.1969,0036,-8.99,-0.31,9.0000,268.0000
1983-08-01 02:30:00 UTC,2445547.604167,29.5531,-94.1969,0036,-7.97,-0.70,8.0000,265.0000
1983-08-01 03:00:00 UTC,2445547.625000,29.5531,-94.1969,0036,-7.94,-0.97,8.0000,263.0000
1983-08-01 03:30:00 UTC,2445547.645833,29.5531,-94.1969,0036,-8.80,-1.87,9.0000,258.0000
1983-08-01 04:00:00 UTC,2445547.666667,29.5531,-94.1969,0036,-7.36,-3.13,8.0000,247.0000
1983-08-01 04:30:00 UTC,2445547.687500,29.5531,-94.1969,0036,-4.97,-3.36,6.0000,236.0000
1983-08-01 05:00:00 UTC,2445547.708333,29.5531,-94.1969,0036,-4.10,-2.87,5.0000,235.0000
1983-08-01 05:30:00 UTC,2445547.729167,29.5531,-94.1969,0036,-4.29,-2.58,5.0000,239.0000
1983-08-01 06:00:00 UTC,2445547.750000,29.5531,-94.1969,0036,-2.54,-1.59,3.0000,238.0000
1983-08-01 06:30:00 UTC,2445547.770833,29.5531,-94.1969,0036,-1.49,-1.34,2.0000,228.0000
1983-08-01 07:00:00 UTC,2445547.791667,29.5531,-94.1969,0036,-1.97,-2.26,3.0000,221.0000
1983-08-01 07:30:00 UTC,2445547.812500,29.5531,-94.1969,0036,-2.46,-3.15,4.0000,218.0000
1983-08-01 08:00:00 UTC,2445547.833333,29.5531,-94.1969,0036,-3.08,-3.94,5.0000,218.0000
1983-08-01 08:30:00 UTC,2445547.854167,29.5531,-94.1969,0036,-3.35,-3.72,5.0000,222.0000
1983-08-01 09:00:00 UTC,2445547.875000,29.5531,-94.1969,0036,-2.88,-2.78,4.0000,226.0000
1983-08-01 09:30:00 UTC,2445547.895833,29.5531,-94.1969,0036,-1.78,-0.91,2.0000,243.0000
1983-08-01 10:00:00 UTC,2445547.916667,29.5531,-94.1969,0036,-1.23,1.58,2.0000,322.0000
1983-08-01 10:30:00 UTC,2445547.937500,29.5531,-94.1969,0036,-1.36,2.67,3.0000,333.0000
1983-08-01 11:00:00 UTC,2445547.958333,29.5531,-94.1969,0036,-1.00,1.73,2.0000,330.0000
1983-08-01 11:30:00 UTC,2445547.979167,29.5531,-94.1969,0036,-0.91,0.41,1.0000,294.0000
1983-08-01 12:00:00 UTC,2445548.000000,29.5531,-94.1969,0036,-1.71,-1.03,2.0000,239.0000
1983-08-01 12:30:00 UTC,2445548.020833,29.5531,-94.1969,0036,-3.28,-2.29,4.0000,235.0000
1983-08-01 13:00:00 UTC,2445548.041667,29.5531,-94.1969,0036,-4.15,-2.80,5.0000,236.0000
1983-08-01 13:30:00 UTC,2445548.062500,29.5531,-94.1969,0036,-6.06,-3.50,7.0000,240.0000
1983-08-01 14:00:00 UTC,2445548.083333,29.5531,-94.1969,0036,-7.19,-3.51,8.0000,244.0000
1983-08-01 14:30:00 UTC,2445548.104167,29.5531,-94.1969,0036,-6.44,-2.74,7.0000,247.0000
1983-08-01 15:00:00 UTC,2445548.125000,29.5531,-94.1969,0036,-6.73,-1.93,7.0000,254.0000
1983-08-01 15:30:00 UTC,2445548.145833,29.5531,-94.1969,0036,-5.91,-1.04,6.0000,260.0000
1983-08-01 16:00:00 UTC,2445548.166667,29.5531,-94.1969,0036,-3.91,-0.83,4.0000,258.0000
1983-08-01 16:30:00 UTC,2445548.187500,29.5531,-94.1969,0036,-3.73,-1.43,4.0000,249.0000
1983-08-01 17:00:00 UTC,2445548.208333,29.5531,-94.1969,0036,-2.67,-1.36,3.0000,243.0000
1983-08-01 17:30:00 UTC,2445548.229167,29.5531,-94.1969,0036,-2.80,-1.08,3.0000,249.0000
1983-08-01 18:00:00 UTC,2445548.250000,29.5531,-94.1969,0036,-3.00,-0.10,3.0000,268.0000
1983-08-01 18:30:00 UTC,2445548.270833,29.5531,-94.1969,0036,-1.90,0.62,2.0000,288.0000
1983-08-01 19:00:00 UTC,2445548.291667,29.5531,-94.1969,0036,-1.66,1.12,2.0000,304.0000
1983-08-01 19:30:00 UTC,2445548.312500,29.5531,-94.1969,0036,-1.26,1.55,2.0000,321.0000
1983-08-01 20:00:00 UTC,2445548.333333,29.5531,-94.1969,0036,-0.98,2.84,3.0000,341.0000
1983-08-01 20:30:00 UTC,2445548.354167,29.5531,-94.1969,0036,0.07,4.00,4.0000,1.0000
1983-08-01 21:00:00 UTC,2445548.375000,29.5531,-94.1969,0036,0.62,2.93,3.0000,12.0000
1983-08-01 21:30:00 UTC,2445548.395833,29.5531,-94.1969,0036,0.22,0.97,1.0000,13.0000
1983-08-01 22:00:00 UTC,2445548.416667,29.5531,-94.1969,0036,0.31,0.95,1.0000,18.0000
1983-08-01 22:30:00 UTC,2445548.437500,29.5531,-94.1969,0036,0.88,1.80,2.0000,26.0000
1983-08-01 23:00:00 UTC,2445548.458333,29.5531,-94.1969,0036,1.27,2.72,3.0000,25.0000
1983-08-01 23:30:00 UTC,2445548.479167,29.5531,-94.1969,0036,1.43,3.73,4.0000,21.0000
1983-08-02 00:00:00 UTC,2445548.500000,29.5531,-94.1969,0036,1.87,4.64,5.0000,22.0000
1983-08-02 00:30:00 UTC,2445548.520833,29.5531,-94.1969,0036,1.56,3.68,4.0000,23.0000
1983-08-02 01:00:00 UTC,2445548.541667,29.5531,-94.1969,0036,0.78,2.90,3.0000,15.0000
1983-08-02 01:30:00 UTC,2445548.562500,29.5531,-94.1969,0036,0.31,2.98,3.0000,6.0000
1983-08-02 02:00:00 UTC,2445548.583333,29.5531,-94.1969,0036,0.31,1.98,2.0000,9.0000
1983-08-02 02:30:00 UTC,2445548.604167,29.5531,-94.1969,0036,0.00,0.00,0.0000,9.0000
1983-08-02 03:00:00 UTC,2445548.625000,29.5531,-94.1969,0036,-0.93,0.37,1.0000,292.0000
1983-08-02 03:30:00 UTC,2445548.645833,29.5531,-94.1969,0036,-1.83,0.81,2.0000,294.0000
1983-08-02 04:00:00 UTC,2445548.666667,29.5531,-94.1969,0036,-3.60,1.75,4.0000,296.0000
1983-08-02 04:30:00 UTC,2445548.687500,29.5531,-94.1969,0036,-3.32,2.24,4.0000,304.0000